User: anonymous   Login
Location: Unspecified
(0.0000°N, 0.0000°E)
Time: 07:15:38
(UTC+00:00)
Language:

Astrid - Orbit

View from above orbital plane
View from above orbital plane
View from above satellite
View from above satellite

Ground track
Ground track

The orbit data is extracted from the following two-line orbital elements,

1 23464U 95002B   17178.86051898 +.00000050 +00000-0 +38344-4 0  9995
2 23464 082.9287 281.4284 0039662 249.0796 110.6112 13.72523886122821
Epoch (UTC): 27 June 2017 20:39:08
Eccentricity: 0.0039662
inclination: 82.9287°
perigee height: 961 km
apogee height: 1020 km
right ascension of ascending node: 281.4284°
argument of perigee: 249.0796°
revolutions per day: 13.72523886
mean anomaly at epoch: 110.6112°
orbit number at epoch: 12282

The dashed part of the orbit path shows where the satellite is in the earth's shadow,  

DLR